Location: Central Falls
(41.8900°N, 71.3929°W)
Time: 12:36:28
(UTC+00:00)

Courier 1B Rocket - Pass Details

Date: 08 December 2023
Orbit: 920 x 1202 km, 28.2° (Epoch: 01 March)

Event Time Altitude Azimuth Distance (km) Brightness Sun altitude
Rises 18:24:36 0° 251° (WSW) 3,711 8.7 20.8°
Reaches altitude 10° 18:27:56 10° 237° (WSW) 2,714 8.5 20.5°
Maximum altitude 18:32:43 22° 189° (S) 1,951 8.4 20.1°
Drops below altitude 10° 18:37:20 10° 142° (SE) 2,620 7.6 19.7°
Sets 18:40:31 0° 127° (SE) 3,547 8.0 19.4°
